www.pogodaiklimat.ru
Время
и дата
14:51 06.08
15:51 06.08
16:51 06.08
17:51 06.08
18:51 06.08
19:51 06.08
20:51 06.08
21:51 06.08
22:51 06.08
23:51 06.08
00:51 07.08
01:01 07.08
01:09 07.08
01:51 07.08
02:51 07.08
03:04 07.08
03:15 07.08
03:51 07.08
04:51 07.08
05:51 07.08
06:51 07.08
07:51 07.08
08:02 07.08
08:25 07.08
08:51 07.08
09:51 07.08
10:51 07.08
11:51 07.08
12:51 07.08
13:12 07.08
13:21 07.08
13:27 07.08
13:34 07.08
13:51 07.08
14:51 07.08
15:51 07.08
16:51 07.08
17:51 07.08
18:51 07.08
19:51 07.08
20:51 07.08
21:51 07.08
22:51 07.08
23:51 07.08
00:51 08.08
01:51 08.08
02:51 08.08
03:51 08.08
Ветер
(напр.,м/с)
Видим. Явления Облачность Т
(С)
Тd
(С)
f
(%)
Тe
(С)
Тes
(С)
Комфортность P
(гПа)
Po
(гПа)
Тmin
(С)
Tmax
(С)
R
(мм)
R24
(мм)
S
(см)
16 км 2/0 3000 м
[Ac]
+32.2 +20.6 50 +39 +56 опасность
солнечного
удара
1021.1 1017.4
ЮЗ 2 16 км 2/2 1800 м +32.2 +18.9 45 +37 +43 очень
душно
1020.8 1016.7
нст 1 16 км ясно +31.1 +19.4 50 +37 +42 очень
душно
1020.6 1016.7
нст 1 16 км ясно +30.6 +20.0 53 +37 +39 очень
душно
1020.6 1016.7
нст 1 16 км 8/8 1500 м +30.0 +20.6 57 +37 +37 очень
душно
1020.8 1016.7 +30.0 +33.3
нст 1 16 км ясно +29.4 +20.6 59 +36 +36 очень
душно
1021.1 1017.1
нст 1 16 км ясно +29.4 +20.6 59 +36 +36 очень
душно
1022.0 1018.1
16 км 2/2 1380 м +28.9 +21.1 63 +36 +36 очень
душно
1022.2 1018.4
нст 1 16 км ясно +28.3 +21.7 67 +36 +36 очень
душно
1022.5 1018.4
нст 1 16 км ясно +27.8 +22.2 72 +36 +36 очень
душно
1022.1 1018.1
ЮЗ 2 16 км 5/5 780 м +27.2 +22.8 77 +36 +36 очень
душно
1021.8 1017.7 +27.2 +30.0
нст 1 16 км 8/8 720 м +27.2 +22.8 77 +36 +36 очень
душно
1017.7
нст 1 16 км 5/5 720 м +27.2 +22.8 77 +36 +36 очень
душно
1017.7
ЮЗ 1 16 км 2/2 600 м +27.2 +22.8 77 +36 +36 очень
душно
1021.6 1017.7
16 км 2/2 570 м +26.7 +22.8 79 +35 +35 очень
душно
1021.6 1017.7
нст 1 16 км 8/8 570 м +26.7 +22.8 79 +35 +35 очень
душно
1017.7
нст 1 16 км 5/5 570 м +26.7 +22.8 79 +35 +35 очень
душно
1017.7
нст 1 16 км ясно +26.7 +22.2 76 +35 +35 очень
душно
1021.6 1017.7
нст 1 16 км ясно +26.7 +22.2 76 +35 +35 очень
душно
1021.7 1017.7
нст 1 16 км 5/5 510 м +26.7 +22.8 79 +35 +35 очень
душно
1022.0 1018.1
нст 1 16 км 2/2 510 м +26.7 +22.8 79 +35 +36 очень
душно
1022.1 1018.1 +26.1 +27.2
нст 1 16 км 5/5 600 м +27.2 +22.8 77 +36 +38 очень
душно
1022.4 1018.4
ЮЗ 1 16 км 8/8 600 м +27.2 +22.8 77 +36 +37 очень
душно
1018.4
ЮЗ 2 16 км 5/5 600 м +27.8 +22.8 74 +37 +39 очень
душно
1018.4
ЮЗ 1 16 км 5/5 690 м +28.3 +22.8 72 +38 +40 очень
душно
1022.0 1018.1
нст 1 16 км 8/8 1020 м +30.0 +21.7 61 +38 +40 очень
душно
1021.8 1017.7
16 км ясно +29.4 +22.2 65 +38 +58 опасность
солнечного
удара
1021.0 1017.1
нст 1 16 км 8/8 1410 м +32.8 +22.2 54 +42 +45 опасность
перегрева
1020.1 1016.4
ЮЗ 2 16 км 8/2 1800 м
[Ac]
+32.2 +21.1 52 +40 +46 очень
душно
1019.7 1015.7 +26.7 +33.3
З 2
{4}
2 км сильный дождь 10/5 1500 м
[Ac]
+28.9 +22.2 67 +38 +40 очень
душно
1016.0
нст 1
{4}
800 м слабый дождь, туман 10/8 840 м
[Ac]
+25.6 +23.3 87 +34 +36 очень
душно
1015.7
З 1 4 км слабый дождь, дымка 8/5 780 м
[Ac]
+25.6 +23.9 90 +35 +41 очень
душно
1015.7
штиль 0 14 км 5/5 870 м
[Ac]
+25.6 +23.3 87 +34 +46 очень
душно
1015.7
нст 1 6 км слабый дождь, дымка 8/8 1020 м +25.6 +23.9 90 +35 +38 очень
душно
1019.8 1016.0
нст 1 16 км ясно +28.3 +23.3 74 +38 +53 опасность
солнечного
удара
1018.8 1015.0
нст 1
{4}
16 км ясно +30.6 +22.2 61 +40 +48 очень
душно
1017.8 1014.0 4.1
штиль 0 16 км ясно +31.7 +20.6 52 +39 +47 очень
душно
1017.5 1013.7
нст 1
{4}
16 км ясно +32.2 +19.4 47 +38 +40 очень
душно
1017.5 1013.7
нст 1 16 км ясно +31.1 +18.9 48 +36 +37 очень
душно
1017.5 1013.7 +24.4 +32.2 4.1
ЮЗ 1 16 км ясно +30.6 +18.9 50 +36 +36 очень
душно
1018.1 1014.4
ЮЗ 2 16 км ясно +29.4 +19.4 55 +35 +35 очень
душно
1018.6 1014.7
нст 1 16 км ясно +28.9 +19.4 57 +35 +35 очень
душно
1018.5 1014.7
ЮЗ 1 16 км ясно +27.8 +20.6 65 +35 +35 очень
душно
1018.6 1014.7
16 км ясно +27.8 +21.1 67 +35 +35 очень
душно
1018.5 1014.7
нст 1 16 км ясно +27.2 +21.7 72 +35 +35 очень
душно
1017.9 1014.0 +27.2 +31.7
З 2 16 км 2/2 1320 м +27.2 +22.2 74 +35 +35 очень
душно
1017.7 1013.7
нст 1 16 км ясно +26.7 +22.2 76 +35 +35 очень
душно
1017.4 1013.7
нст 1 16 км ясно +26.1 +22.8 82 +35 +35 очень
душно
1017.3 1013.3
Местоположение метеостанции Central Park: широта 40.7789 долгота -73.9692 высота над уровнем моря 40 м.
В архиве по умолчанию представлена погода в Нью-Йорк Сити за последние 1-2 суток. Обновление информации о фактической погоде в базе происходит ежечасно! Архивные данные за месяц целиком и за предыдущие месяцы Вы можете получить, выбрав интересующий диапазон дат из раскрывающегося списка и нажав кнопку "Ввод!".
Внимание! Архив погоды МЕТАР в базе сайта по станциям, не включенным в климатический монитор, хранится не более 60 дней. Нет смысла пытаться выбрать более раннюю дату.
*Определитесь, кто Вы:
Внимание! Время в таблицах - местное (без учета летнего времени). Для получения всемирного времени необходимо вычесть поправку, которая равна -5 ч.
Смотрите также архив погоды в соседних городах и на ближайших метеорологических станциях:
Партнеры нашего сайта:      
Пояснения к столбцам:
  • Ветер - указаны скорость ветра в м/с - средняя за 10 мин, порывы в срок и между сроками (в фигурных скобках) и направление, откуда дует ветер: С - северный,
  • СВ - северо-восточный, В - восточный, ЮВ - юго-восточный, Ю - южный, ЮЗ - юго-западный, З - западный, СЗ - северо-западный.
  • Видимость - горизонтальная дальность видимости в метрах или километрах. При видимости от 1 до 10 км при отсутствии осадков обычно наблюдается дымка, при ухудшении видимости до 1 км и менее - туман. В сухую погоду видимость может ухудшаться дымом, пылью или мглою.
  • Явления - указаны атмосферные явления, наблюдавшиеся в срок или в последний час перед сроком; фигурными скобками обозначены явления, наблюдавшиеся между сроками (за 1-3 часа до срока); квадратными скобками обозначены град или гололедные отложения с указанием их диаметра в мм.
  • Облачность - указаны через наклонную черту общая и нижняя облачность в баллах и высота нижней границы облаков в метрах; квадратными скобками обозначены формы облаков: Ci - перистые, Cs - перисто-слоистые, Cc - перисто-кучевые, Ac - высококучевые, As - высокослоистые, Sc - слоисто-кучевые, Ns - слоисто-дождевые, Cu - кучевые, Cb - кучево-дождевые. Подробнее классификацию облаков см. в Атласе облаков (PDF).
  • T - Температура воздуха - температура, измеренная на высоте 2 м над землей.
  • Td - Температура точки росы - температура, при понижении до которой содержащийся в воздухе водяной пар достигнет насыщения.
  • f - Относительная влажность воздуха - влажноcть воздуха, измеренная на высоте 2 м над землей.
  • Te - Эффективная температура - температура, которую ощущает одетый по сезону человек в тени. Характеристика душности погоды. При расчете учитывается влияние влажности воздуха и скорости ветра на теплоощущения человека.
  • Tes - Эффективная температура на солнце - температура, которую ощущает человек, с поправкой на солнечный нагрев. Характеристика знойности погоды. Зависит от высоты солнца над горизонтом, облачности и скорости ветра. Ночью, в пасмурную погоду, а также при ветре 12 м/с и более поправка равна нулю.
  • P - Атмосферное давление - приведенное к уровню моря атмосферное давление.
  • Po - Атмосферное давление - измеренное на уровне метеостанции атмосферное давление.
  • Tmin - Минимальная температура - минимум температуры воздуха на высоте 2 м над землей.
  • Tmax - Максимальная температура - максимум температуры воздуха на высоте 2 м над землей.
  • R - Количество осадков - Количество выпавших осадков за период времени, мм. При наведении курсора мыши на число - период времени, за который выпало указанное количество осадков.
  • R24 - Количество осадков - Количество выпавших осадков за 24 часа, мм.
  • S - Снежный покров - Высота снежного покрова, см. При наведении курсора мыши на число - состояние снежного покрова и степень покрытия местности в баллах.